2026-027D

Last updated on Sun Mar 15 2026 00:02:06 GMT+0000 (Coordinated Universal Time)

1 67749U 26027D 26073.57366287 .00014889 00000+0 72764-3 0 9990 2 67749 97.4904 202.5562 0010575 187.5239 172.5838 15.18288429 4559
UTC large
Height (km)
Speed (km/s)
/
Latitude / Longitude
Inclination (degrees)
Orbital Period (minutes)
Azimuth
Elevation
Range (km)
Doppler Factor

Next 0 passes for location: London (51.5072 / 0.1276)

Sorry there are no passes over London.